START_TIME,STEP,MOV.,H8,t_acc.,H43,t_acc.,M25,t_acc.,H9,t_acc.
1979-07-20 18:00:29.260 ,0,1,0.,12.0,0.,12.0,0.,12.0,0.,12.0
1979-07-20 18:00:41.260 ,0,1,0.,12.0,0.,12.0,0.,12.0,0.,12.0
1979-07-20 18:00:53.260 ,4,1,0.,12.0,0.,12.0,0.,12.0,0.,12.0
1979-07-20 18:01:05.260 ,4,1,0.,12.0,0.,12.0,0.,12.0,0.,12.0
1979-07-20 18:01:17.260 ,7,1,0.,12.0,0.,12.0,0.,12.0,0.,12.0
1979-07-20 18:01:29.260 ,7,1,0.,12.0,0.,12.0,0.,12.0,0.,12.0
1979-07-20 18:01:41.260 ,3,1,0.,12.0,0.,12.0,0.,12.0,0.,12.0
1979-07-20 18:01:53.260 ,3,1,0.,12.0,0.,12.0,0.,12.0,0.,12.0
1979-07-20 18:02:05.260 ,0,1,0.,12.0,0.,12.0,0.,12.0,0.,12.0
1979-07-20 18:02:17.260 ,0,1,0.,12.0,0.,12.0,0.,12.0,0.,12.0
1979-07-20 18:02:29.260 ,4,1,0.,12.0,0.,12.0,0.,12.0,0.,12.0
1979-07-20 18:02:41.260 ,4,1,0.,12.0,0.,12.0,0.,12.0,0.,12.0
1979-07-20 18:02:53.260 ,7,1,0.,12.0,0.,12.0,0.,12.0,0.,12.0
1979-07-20 18:03:05.260 ,7,1,0.,12.0,0.,12.0,0.,12.0,0.,12.0
1979-07-20 18:03:17.260 ,3,1,0.,12.0,0.,12.0,0.,12.0,0.,12.0
1979-07-20 18:03:29.260 ,3,1,0.,12.0,0.,12.0,0.,12.0,0.,12.0
1979-07-20 18:03:41.260 ,0,1,0.,12.0,0.,12.0,0.,12.0,0.,12.0
1979-07-20 18:03:53.260 ,0,1,0.,12.0,0.,12.0,0.,12.0,0.,12.0
1979-07-20 18:04:05.260 ,4,1,0.,12.0,0.,12.0,0.,12.0,0.,12.0
1979-07-20 18:04:17.260 ,4,1,0.,12.0,0.,12.0,0.,12.0,0.,12.0
1979-07-20 18:04:29.260 ,7,1,0.,12.0,0.,12.0,0.,12.0,0.,12.0
1979-07-20 18:04:41.260 ,7,1,0.,12.0,0.,12.0,0.,12.0,0.,12.0
1979-07-20 18:04:53.260 ,3,1,0.,12.0,0.,12.0,0.,12.0,0.,12.0
1979-07-20 18:05:05.260 ,3,1,0.,12.0,0.,12.0,0.,12.0,0.,12.0
1979-07-20 18:05:17.260 ,0,1,0.,12.0,0.,12.0,0.,12.0,0.,12.0
1979-07-20 18:05:29.260 ,0,1,0.,12.0,0.,12.0,0.,12.0,0.,12.0
1979-07-20 18:05:41.260 ,0,0,1.,12.0,0.,12.0,0.,12.0,0.,12.0
1979-07-20 18:05:53.260 ,0,0,0.,12.0,0.,12.0,0.,12.0,0.,12.0
1979-07-20 18:06:05.260 ,0,0,0.,12.0,0.,12.0,0.,12.0,0.,12.0
1979-07-20 18:06:17.260 ,0,0,0.,12.0,0.,12.0,0.,12.0,0.,12.0
1979-07-20 18:06:29.260 ,5,0,0.,12.0,0.,12.0,0.,12.0,0.,12.0
1979-07-20 18:06:41.260 ,5,0,0.,12.0,0.,12.0,0.,12.0,0.,12.0
1979-07-20 18:06:53.260 ,5,0,0.,12.0,0.,12.0,0.,12.0,0.,12.0
1979-07-20 18:07:05.260 ,5,0,0.,12.0,1.,12.0,0.,12.0,0.,12.0
1979-07-20 18:07:17.260 ,0,0,0.,12.0,0.,12.0,0.,12.0,0.,12.0
1979-07-20 18:07:29.260 ,0,0,,0,,0,,0,,0
1979-07-20 18:07:41.260 ,0,0,,0,,0,,0,,0
1979-07-20 18:07:53.260 ,0,0,,0,,0,,0,,0
1979-07-20 18:08:38.260 ,0,0,,0,,0,,0,,0
1979-07-20 18:08:50.260 ,0,0,0.,12.0,0.,12.0,0.,12.0,0.,12.0
1979-07-20 18:08:53.260 ,2,0,0.,12.0,0.,12.0,0.,12.0,0.,12.0
1979-07-20 18:09:05.260 ,2,0,0.,12.0,0.,12.0,0.,12.0,0.,12.0
1979-07-20 18:09:17.260 ,2,0,0.,12.0,0.,12.0,0.,12.0,0.,12.0
1979-07-20 18:09:29.260 ,2,0,0.,12.0,0.,12.0,0.,12.0,0.,12.0
1979-07-20 18:09:41.260 ,1,0,0.,12.0,0.,12.0,0.,12.0,0.,12.0
1979-07-20 18:09:53.260 ,1,0,0.,12.0,0.,12.0,0.,12.0,0.,12.0
1979-07-20 18:10:05.260 ,1,0,0.,12.0,0.,12.0,0.,12.0,0.,12.0
1979-07-20 18:10:17.260 ,1,0,0.,12.0,0.,12.0,0.,12.0,0.,12.0
1979-07-20 18:10:29.260 ,0,0,0.,12.0,0.,12.0,0.,12.0,0.,12.0
1979-07-20 18:10:41.260 ,0,0,0.,12.0,0.,12.0,0.,12.0,0.,12.0
1979-07-20 18:10:53.260 ,0,0,0.,12.0,0.,12.0,0.,12.0,0.,12.0
1979-07-20 18:11:05.260 ,0,0,0.,12.0,0.,12.0,0.,12.0,0.,12.0
1979-07-20 18:11:17.260 ,0,0,0.,12.0,0.,12.0,0.,12.0,0.,12.0
1979-07-20 18:11:29.260 ,0,0,0.,12.0,0.,12.0,0.,12.0,0.,12.0
1979-07-20 18:11:41.260 ,0,0,0.,12.0,0.,12.0,0.,12.0,0.,12.0
1979-07-20 18:11:53.260 ,0,0,0.,12.0,0.,12.0,0.,12.0,0.,12.0
1979-07-20 18:12:05.260 ,1,0,0.,12.0,0.,12.0,0.,12.0,0.,12.0
1979-07-20 18:12:17.260 ,1,0,0.,12.0,0.,12.0,0.,12.0,0.,12.0
1979-07-20 18:12:29.260 ,1,0,0.,12.0,0.,12.0,0.,12.0,0.,12.0
1979-07-20 18:12:41.260 ,1,0,0.,12.0,0.,12.0,0.,12.0,0.,12.0
1979-07-20 18:12:53.260 ,2,0,0.,12.0,0.,12.0,0.,12.0,0.,12.0
1979-07-20 18:13:05.260 ,2,0,0.,12.0,0.,12.0,0.,12.0,0.,12.0
1979-07-20 18:13:17.260 ,2,0,0.,12.0,0.,12.0,0.,12.0,0.,12.0
1979-07-20 18:13:29.260 ,2,0,0.,12.0,0.,12.0,0.,12.0,0.,12.0
1979-07-20 18:13:41.260 ,3,0,0.,12.0,0.,12.0,0.,12.0,0.,12.0
1979-07-20 18:13:53.260 ,3,0,0.,12.0,0.,12.0,0.,12.0,0.,12.0
1979-07-20 18:14:05.260 ,3,0,0.,12.0,0.,12.0,0.,12.0,0.,12.0
1979-07-20 18:14:17.260 ,3,0,0.,12.0,0.,12.0,0.,12.0,0.,12.0
1979-07-20 18:14:29.260 ,4,0,0.,12.0,0.,12.0,0.,12.0,0.,12.0
1979-07-20 18:14:41.260 ,4,0,0.,12.0,0.,12.0,0.,12.0,0.,12.0
1979-07-20 18:14:53.260 ,4,0,0.,12.0,0.,12.0,0.,12.0,0.,12.0
1979-07-20 18:15:05.260 ,4,0,0.,12.0,0.,12.0,0.,12.0,0.,12.0
1979-07-20 18:15:17.260 ,5,0,0.,12.0,0.,12.0,0.,12.0,0.,12.0
1979-07-20 18:15:29.260 ,5,0,0.,12.0,0.,12.0,0.,12.0,0.,12.0
1979-07-20 18:15:41.260 ,5,0,0.,12.0,0.,12.0,0.,12.0,0.,12.0
1979-07-20 18:15:53.260 ,5,0,0.,12.0,0.,12.0,0.,12.0,0.,12.0
1979-07-20 18:16:05.260 ,6,0,0.,12.0,0.,12.0,0.,12.0,0.,12.0
1979-07-20 18:16:17.260 ,6,0,0.,12.0,0.,12.0,0.,12.0,0.,12.0
1979-07-20 18:16:29.260 ,6,0,0.,12.0,0.,12.0,0.,12.0,0.,12.0
1979-07-20 18:16:41.260 ,6,0,0.,12.0,0.,12.0,0.,12.0,0.,12.0
1979-07-20 18:16:53.260 ,7,0,0.,12.0,0.,12.0,0.,12.0,0.,12.0
1979-07-20 18:17:05.260 ,7,0,0.,12.0,0.,12.0,0.,12.0,0.,12.0
1979-07-20 18:17:17.260 ,7,0,0.,12.0,0.,12.0,0.,12.0,0.,12.0
1979-07-20 18:17:29.260 ,7,0,0.,12.0,0.,12.0,0.,12.0,0.,12.0
1979-07-20 18:17:41.260 ,7,0,0.,12.0,0.,12.0,0.,12.0,0.,12.0
1979-07-20 18:17:53.260 ,7,0,0.,12.0,0.,12.0,0.,12.0,0.,12.0
1979-07-20 18:18:05.260 ,7,0,0.,12.0,0.,12.0,0.,12.0,0.,12.0
1979-07-20 18:18:17.260 ,7,0,0.,12.0,0.,12.0,0.,12.0,0.,12.0
1979-07-20 18:18:29.260 ,6,0,0.,12.0,0.,12.0,0.,12.0,0.,12.0
1979-07-20 18:18:41.260 ,6,0,0.,12.0,0.,12.0,0.,12.0,0.,12.0
1979-07-20 18:18:53.260 ,6,0,0.,12.0,0.,12.0,0.,12.0,0.,12.0
1979-07-20 18:19:05.260 ,6,0,0.,12.0,0.,12.0,0.,12.0,0.,12.0
1979-07-20 18:19:17.260 ,5,0,0.,12.0,0.,12.0,0.,12.0,0.,12.0
1979-07-20 18:19:29.260 ,5,0,0.,12.0,0.,12.0,0.,12.0,0.,12.0
1979-07-20 18:19:41.260 ,5,0,0.,12.0,0.,12.0,0.,12.0,0.,12.0
1979-07-20 18:19:53.260 ,5,0,0.,12.0,0.,12.0,0.,12.0,0.,12.0
1979-07-20 18:20:05.260 ,4,0,0.,12.0,0.,12.0,0.,12.0,0.,12.0
1979-07-20 18:20:17.260 ,4,0,0.,12.0,0.,12.0,0.,12.0,0.,12.0
1979-07-20 18:20:29.260 ,4,0,0.,12.0,0.,12.0,0.,12.0,0.,12.0
1979-07-20 18:20:41.260 ,4,0,0.,12.0,0.,12.0,0.,12.0,0.,12.0
1979-07-20 18:20:53.260 ,3,0,0.,12.0,0.,12.0,0.,12.0,0.,12.0
1979-07-20 18:21:05.260 ,3,0,0.,12.0,0.,12.0,0.,12.0,0.,12.0
1979-07-20 18:21:17.260 ,3,0,0.,12.0,0.,12.0,0.,12.0,0.,12.0
1979-07-20 18:21:29.260 ,3,0,0.,12.0,0.,12.0,0.,12.0,0.,12.0
1979-07-20 18:21:41.260 ,2,0,0.,12.0,0.,12.0,0.,12.0,0.,12.0
1979-07-20 18:21:53.260 ,2,0,0.,12.0,0.,12.0,0.,12.0,0.,12.0
1979-07-20 18:22:05.260 ,2,0,0.,12.0,0.,12.0,0.,12.0,0.,12.0
1979-07-20 18:22:17.260 ,2,0,0.,12.0,0.,12.0,0.,12.0,0.,12.0
1979-07-20 18:22:29.260 ,1,0,0.,12.0,0.,12.0,0.,12.0,0.,12.0
1979-07-20 18:22:41.260 ,1,0,0.,12.0,0.,12.0,0.,12.0,0.,12.0
1979-07-20 18:22:53.260 ,1,0,0.,12.0,0.,12.0,0.,12.0,0.,12.0
1979-07-20 18:23:05.260 ,1,0,0.,12.0,0.,12.0,0.,12.0,0.,12.0
1979-07-20 18:23:17.260 ,0,0,0.,12.0,0.,12.0,0.,12.0,0.,12.0
1979-07-20 18:23:29.260 ,0,0,0.,12.0,0.,12.0,0.,12.0,0.,12.0
1979-07-20 18:23:41.260 ,0,0,0.,12.0,0.,12.0,0.,12.0,0.,12.0
1979-07-20 18:23:53.260 ,0,0,0.,12.0,0.,12.0,0.,12.0,0.,12.0
1979-07-20 18:24:05.260 ,0,0,0.,12.0,0.,12.0,0.,12.0,0.,12.0
1979-07-20 18:24:17.260 ,0,0,0.,12.0,0.,12.0,0.,12.0,0.,12.0
1979-07-20 18:24:29.260 ,0,0,0.,12.0,0.,12.0,0.,12.0,0.,12.0
1979-07-20 18:24:41.260 ,0,0,0.,12.0,0.,12.0,0.,12.0,0.,12.0
1979-07-20 18:24:53.260 ,1,0,0.,12.0,0.,12.0,0.,12.0,0.,12.0
1979-07-20 18:25:05.260 ,1,0,0.,12.0,0.,12.0,0.,12.0,0.,12.0
1979-07-20 18:25:17.260 ,1,0,0.,12.0,0.,12.0,0.,12.0,0.,12.0
1979-07-20 18:25:29.260 ,1,0,0.,12.0,0.,12.0,0.,12.0,0.,12.0
1979-07-20 18:25:41.260 ,2,0,0.,12.0,0.,12.0,0.,12.0,0.,12.0
1979-07-20 18:25:53.260 ,2,0,0.,12.0,0.,12.0,0.,12.0,0.,12.0
1979-07-20 18:26:05.260 ,2,0,0.,12.0,0.,12.0,0.,12.0,0.,12.0
1979-07-20 18:26:17.260 ,2,0,0.,12.0,0.,12.0,0.,12.0,0.,12.0
1979-07-20 18:26:29.260 ,3,0,0.,12.0,0.,12.0,0.,12.0,0.,12.0
1979-07-20 18:26:41.260 ,3,0,0.,12.0,0.,12.0,0.,12.0,0.,12.0
1979-07-20 18:26:53.260 ,3,0,0.,12.0,0.,12.0,0.,12.0,0.,12.0
1979-07-20 18:27:05.260 ,3,0,0.,12.0,0.,12.0,0.,12.0,0.,12.0
1979-07-20 18:27:17.260 ,4,0,0.,12.0,0.,12.0,0.,12.0,0.,12.0
1979-07-20 18:27:29.260 ,4,0,0.,12.0,0.,12.0,0.,12.0,0.,12.0
1979-07-20 18:27:41.260 ,4,0,0.,12.0,0.,12.0,0.,12.0,0.,12.0
1979-07-20 18:27:53.260 ,4,0,0.,12.0,0.,12.0,0.,12.0,0.,12.0
1979-07-20 18:28:05.260 ,5,0,0.,12.0,0.,12.0,0.,12.0,0.,12.0
1979-07-20 18:28:17.260 ,5,0,0.,12.0,0.,12.0,0.,12.0,0.,12.0
1979-07-20 18:28:29.260 ,5,0,0.,12.0,0.,12.0,0.,12.0,0.,12.0
1979-07-20 18:28:41.260 ,5,0,0.,12.0,0.,12.0,0.,12.0,0.,12.0
1979-07-20 18:28:53.260 ,6,0,0.,12.0,0.,12.0,0.,12.0,0.,12.0
1979-07-20 18:29:05.260 ,6,0,0.,12.0,0.,12.0,0.,12.0,0.,12.0
1979-07-20 18:29:17.260 ,6,0,0.,12.0,0.,12.0,0.,12.0,0.,12.0
1979-07-20 18:29:29.260 ,6,0,0.,12.0,0.,12.0,0.,12.0,0.,12.0
1979-07-20 18:29:41.260 ,7,0,0.,12.0,0.,12.0,0.,12.0,0.,12.0
1979-07-20 18:29:53.260 ,7,0,0.,12.0,0.,12.0,0.,12.0,0.,12.0
1979-07-20 18:30:05.260 ,7,0,0.,12.0,0.,12.0,0.,12.0,0.,12.0
1979-07-20 18:30:17.260 ,7,0,0.,12.0,0.,12.0,0.,12.0,0.,12.0
1979-07-20 18:31:17.260 ,0,0,0.,12.0,0.,12.0,0.,12.0,0.,12.0
1979-07-20 18:31:29.260 ,0,0,0.,12.0,0.,12.0,0.,12.0,0.,12.0
1979-07-20 18:31:41.260 ,0,0,0.,12.0,0.,12.0,0.,12.0,0.,12.0
1979-07-20 18:31:53.260 ,0,0,0.,12.0,0.,12.0,0.,12.0,0.,12.0
1979-07-20 18:32:05.260 ,5,0,0.,12.0,0.,12.0,0.,12.0,0.,12.0
1979-07-20 18:32:17.260 ,5,0,0.,12.0,0.,12.0,0.,12.0,0.,12.0
1979-07-20 18:32:29.260 ,5,0,0.,12.0,0.,12.0,0.,12.0,0.,12.0
1979-07-20 18:32:41.260 ,5,0,0.,12.0,0.,12.0,0.,12.0,0.,12.0
1979-07-20 18:32:53.260 ,4,0,0.,12.0,0.,12.0,0.,12.0,0.,12.0
1979-07-20 18:33:05.260 ,4,0,0.,12.0,0.,12.0,0.,12.0,0.,12.0
1979-07-20 18:33:17.260 ,4,0,0.,12.0,0.,12.0,0.,12.0,0.,12.0
1979-07-20 18:33:29.260 ,4,0,0.,12.0,0.,12.0,0.,12.0,0.,12.0
1979-07-20 18:33:41.260 ,3,0,0.,12.0,0.,12.0,0.,12.0,0.,12.0
1979-07-20 18:33:53.260 ,3,0,0.,12.0,0.,12.0,0.,12.0,0.,12.0
1979-07-20 18:34:05.260 ,3,0,0.,12.0,0.,12.0,0.,12.0,0.,12.0
1979-07-20 18:34:17.260 ,3,0,0.,12.0,0.,12.0,0.,12.0,0.,12.0
1979-07-20 18:34:29.250 ,2,0,0.,12.0,0.,12.0,0.,12.0,0.,12.0
1979-07-20 18:34:41.250 ,2,0,0.,12.0,0.,12.0,0.,12.0,0.,12.0
1979-07-20 18:34:53.250 ,2,0,0.,12.0,0.,12.0,0.,12.0,0.,12.0
1979-07-20 18:35:05.250 ,2,0,0.,12.0,0.,12.0,0.,12.0,0.,12.0
1979-07-20 18:35:17.250 ,1,0,0.,12.0,0.,12.0,0.,12.0,0.,12.0
1979-07-20 18:35:29.250 ,1,0,0.,12.0,0.,12.0,0.,12.0,0.,12.0
1979-07-20 18:35:41.250 ,1,0,0.,12.0,0.,12.0,0.,12.0,0.,12.0
1979-07-20 18:35:53.250 ,1,0,0.,12.0,0.,12.0,0.,12.0,0.,12.0
1979-07-20 18:36:05.250 ,0,0,0.,12.0,0.,12.0,0.,12.0,0.,12.0
1979-07-20 18:36:17.250 ,0,0,0.,12.0,0.,12.0,0.,12.0,0.,12.0
1979-07-20 18:36:29.250 ,0,0,0.,12.0,0.,12.0,0.,12.0,0.,12.0
1979-07-20 18:36:41.250 ,0,0,0.,12.0,0.,12.0,0.,12.0,0.,12.0
1979-07-20 18:36:53.250 ,0,0,0.,12.0,0.,12.0,0.,12.0,0.,12.0
1979-07-20 18:37:05.250 ,0,0,0.,12.0,0.,12.0,0.,12.0,0.,12.0
1979-07-20 18:37:17.250 ,0,0,0.,12.0,0.,12.0,0.,12.0,0.,12.0
1979-07-20 18:37:29.250 ,0,0,0.,12.0,0.,12.0,0.,12.0,0.,12.0
1979-07-20 18:37:41.250 ,1,0,0.,12.0,0.,12.0,0.,12.0,0.,12.0
1979-07-20 18:37:53.250 ,1,0,0.,12.0,0.,12.0,0.,12.0,0.,12.0
1979-07-20 18:38:05.250 ,1,0,0.,12.0,0.,12.0,0.,12.0,0.,12.0
1979-07-20 18:38:17.250 ,1,0,0.,12.0,0.,12.0,0.,12.0,0.,12.0
1979-07-20 18:38:29.250 ,2,0,0.,12.0,0.,12.0,0.,12.0,0.,12.0
1979-07-20 18:38:41.250 ,2,0,0.,12.0,0.,12.0,0.,12.0,0.,12.0
1979-07-20 18:38:53.250 ,2,0,0.,12.0,0.,12.0,0.,12.0,0.,12.0
1979-07-20 18:39:05.250 ,2,0,0.,12.0,0.,12.0,0.,12.0,0.,12.0
1979-07-20 18:39:17.250 ,3,0,0.,12.0,0.,12.0,0.,12.0,0.,12.0
1979-07-20 18:39:29.250 ,3,0,0.,12.0,0.,12.0,0.,12.0,0.,12.0
1979-07-20 18:39:41.250 ,3,0,0.,12.0,0.,12.0,0.,12.0,0.,12.0
1979-07-20 18:39:53.250 ,3,0,0.,12.0,0.,12.0,0.,12.0,0.,12.0
1979-07-20 18:40:05.250 ,4,0,0.,12.0,0.,12.0,0.,12.0,0.,12.0
1979-07-20 18:40:17.250 ,4,0,0.,12.0,0.,12.0,0.,12.0,0.,12.0
1979-07-20 18:40:29.250 ,4,0,0.,12.0,0.,12.0,0.,12.0,0.,12.0
1979-07-20 18:40:41.250 ,4,0,0.,12.0,0.,12.0,0.,12.0,0.,12.0
1979-07-20 18:40:53.250 ,5,0,0.,12.0,0.,12.0,0.,12.0,0.,12.0
1979-07-20 18:41:05.250 ,5,0,0.,12.0,0.,12.0,0.,12.0,0.,12.0
1979-07-20 18:41:17.250 ,5,0,0.,12.0,0.,12.0,0.,12.0,0.,12.0
1979-07-20 18:41:29.250 ,5,0,0.,12.0,0.,12.0,0.,12.0,0.,12.0
1979-07-20 18:41:41.250 ,6,0,0.,12.0,0.,12.0,0.,12.0,0.,12.0
1979-07-20 18:41:53.250 ,6,0,0.,12.0,0.,12.0,0.,12.0,0.,12.0
1979-07-20 18:42:05.250 ,6,0,0.,12.0,0.,12.0,0.,12.0,0.,12.0
1979-07-20 18:42:17.250 ,6,0,0.,12.0,0.,12.0,0.,12.0,0.,12.0
1979-07-20 18:42:29.250 ,7,0,0.,12.0,0.,12.0,0.,12.0,0.,12.0
1979-07-20 18:42:41.250 ,7,0,0.,12.0,0.,12.0,0.,12.0,0.,12.0
1979-07-20 18:42:53.250 ,7,0,0.,12.0,0.,12.0,0.,12.0,0.,12.0
1979-07-20 18:43:05.250 ,7,0,0.,12.0,0.,12.0,0.,12.0,0.,12.0
1979-07-20 18:43:17.250 ,3,1,0.,12.0,0.,12.0,0.,12.0,0.,12.0
1979-07-20 18:43:29.250 ,3,1,0.,12.0,0.,12.0,0.,12.0,0.,12.0
1979-07-20 18:43:41.250 ,0,1,0.,12.0,0.,12.0,0.,12.0,0.,12.0
1979-07-20 18:43:53.250 ,0,1,0.,12.0,0.,12.0,0.,12.0,0.,12.0
1979-07-20 18:44:05.250 ,4,1,0.,12.0,0.,12.0,0.,12.0,0.,12.0
1979-07-20 18:44:17.250 ,4,1,0.,12.0,0.,12.0,0.,12.0,0.,12.0
1979-07-20 18:44:29.250 ,7,1,0.,12.0,0.,12.0,0.,12.0,0.,12.0
1979-07-20 18:44:41.250 ,7,1,0.,12.0,0.,12.0,0.,12.0,0.,12.0
1979-07-20 18:44:53.250 ,3,1,0.,12.0,0.,12.0,0.,12.0,0.,12.0
1979-07-20 18:45:05.250 ,3,1,0.,12.0,0.,12.0,0.,12.0,0.,12.0
1979-07-20 18:45:17.250 ,0,1,0.,12.0,0.,12.0,0.,12.0,0.,12.0
1979-07-20 18:45:29.250 ,0,1,0.,12.0,0.,12.0,0.,12.0,0.,12.0
1979-07-20 18:45:41.250 ,4,1,1.,12.0,0.,12.0,0.,12.0,0.,12.0
1979-07-20 18:45:53.250 ,4,1,0.,12.0,0.,12.0,0.,12.0,0.,12.0
1979-07-20 18:46:05.250 ,7,1,0.,12.0,0.,12.0,0.,12.0,0.,12.0
1979-07-20 18:46:17.250 ,7,1,0.,12.0,0.,12.0,0.,12.0,0.,12.0
1979-07-20 18:46:29.250 ,3,1,0.,12.0,0.,12.0,0.,12.0,0.,12.0
1979-07-20 18:46:41.250 ,3,1,0.,12.0,0.,12.0,0.,12.0,0.,12.0
1979-07-20 18:46:53.250 ,0,1,0.,12.0,0.,12.0,0.,12.0,0.,12.0
1979-07-20 18:47:05.250 ,0,1,0.,12.0,0.,12.0,0.,12.0,0.,12.0
1979-07-20 18:47:17.250 ,4,1,0.,12.0,0.,12.0,0.,12.0,0.,12.0
1979-07-20 18:47:29.250 ,4,1,0.,12.0,0.,12.0,0.,12.0,0.,12.0
1979-07-20 18:47:41.250 ,7,1,0.,12.0,0.,12.0,0.,12.0,0.,12.0
1979-07-20 18:47:53.250 ,7,1,0.,12.0,0.,12.0,0.,12.0,0.,12.0
1979-07-20 18:48:05.250 ,3,1,0.,12.0,0.,12.0,0.,12.0,0.,12.0
1979-07-20 18:48:17.250 ,3,1,0.,12.0,0.,12.0,0.,12.0,0.,12.0
1979-07-20 18:48:29.250 ,0,1,0.,12.0,0.,12.0,0.,12.0,0.,12.0
1979-07-20 18:48:41.250 ,0,1,0.,12.0,0.,12.0,0.,12.0,0.,12.0
1979-07-20 18:48:53.250 ,4,1,0.,12.0,0.,12.0,0.,12.0,0.,12.0
1979-07-20 18:49:05.250 ,4,1,0.,12.0,0.,12.0,0.,12.0,0.,12.0
1979-07-20 18:49:17.250 ,7,1,0.,12.0,0.,12.0,0.,12.0,0.,12.0
1979-07-20 18:49:29.250 ,7,1,0.,12.0,0.,12.0,0.,12.0,0.,12.0
1979-07-20 18:49:41.250 ,3,1,0.,12.0,0.,12.0,0.,12.0,0.,12.0
1979-07-20 18:49:53.250 ,3,1,0.,12.0,0.,12.0,0.,12.0,0.,12.0
1979-07-20 18:50:05.250 ,0,1,0.,12.0,0.,12.0,0.,12.0,0.,12.0
1979-07-20 18:50:17.250 ,0,1,0.,12.0,0.,12.0,0.,12.0,0.,12.0
1979-07-20 18:50:29.250 ,4,1,0.,12.0,0.,12.0,0.,12.0,0.,12.0
1979-07-20 18:50:41.250 ,4,1,0.,12.0,0.,12.0,0.,12.0,0.,12.0
1979-07-20 18:50:53.250 ,7,1,0.,12.0,0.,12.0,0.,12.0,0.,12.0
1979-07-20 18:51:05.250 ,7,1,0.,12.0,0.,12.0,0.,12.0,0.,12.0
1979-07-20 18:52:05.250 ,0,0,0.,12.0,0.,12.0,0.,12.0,0.,12.0
1979-07-20 18:52:17.250 ,0,0,0.,12.0,0.,12.0,0.,12.0,0.,12.0
1979-07-20 18:52:29.250 ,7,1,0.,12.0,0.,12.0,0.,12.0,0.,12.0
1979-07-20 18:52:41.250 ,7,1,0.,12.0,0.,12.0,0.,12.0,0.,12.0
1979-07-20 18:52:53.250 ,3,1,0.,12.0,0.,12.0,0.,12.0,0.,12.0
1979-07-20 18:53:05.250 ,3,1,0.,12.0,0.,12.0,0.,12.0,0.,12.0
1979-07-20 18:53:17.250 ,0,1,0.,12.0,0.,12.0,0.,12.0,0.,12.0
1979-07-20 18:53:29.250 ,0,1,0.,12.0,0.,12.0,0.,12.0,0.,12.0
1979-07-20 18:53:41.250 ,0,0,0.,12.0,0.,12.0,0.,12.0,0.,12.0
1979-07-20 18:53:53.250 ,0,0,0.,12.0,0.,12.0,0.,12.0,0.,12.0
1979-07-20 18:54:05.250 ,0,0,0.,12.0,0.,12.0,0.,12.0,0.,12.0
1979-07-20 18:54:17.250 ,0,0,0.,12.0,0.,12.0,0.,12.0,0.,12.0
1979-07-20 18:54:29.250 ,5,0,0.,12.0,0.,12.0,0.,12.0,0.,12.0
1979-07-20 18:54:41.250 ,5,0,0.,12.0,0.,12.0,0.,12.0,0.,12.0
1979-07-20 18:54:53.250 ,5,0,0.,12.0,0.,12.0,0.,12.0,0.,12.0
1979-07-20 18:55:05.250 ,5,0,0.,12.0,0.,12.0,0.,12.0,0.,12.0
1979-07-20 18:55:17.250 ,4,0,0.,12.0,0.,12.0,0.,12.0,0.,12.0
1979-07-20 18:55:29.250 ,4,0,0.,12.0,0.,12.0,0.,12.0,0.,12.0
1979-07-20 18:55:41.250 ,4,0,1.,12.0,0.,12.0,0.,12.0,0.,12.0
1979-07-20 18:55:53.250 ,4,0,0.,12.0,0.,12.0,0.,12.0,0.,12.0
1979-07-20 18:56:05.250 ,3,0,1.,12.0,0.,12.0,0.,12.0,0.,12.0
1979-07-20 18:56:17.250 ,3,0,0.,12.0,0.,12.0,0.,12.0,0.,12.0
1979-07-20 18:56:29.250 ,3,0,0.,12.0,0.,12.0,0.,12.0,0.,12.0
1979-07-20 18:56:41.250 ,3,0,0.,12.0,0.,12.0,0.,12.0,0.,12.0
1979-07-20 18:56:53.250 ,2,0,0.,12.0,0.,12.0,0.,12.0,0.,12.0
1979-07-20 18:57:05.250 ,2,0,0.,12.0,0.,12.0,0.,12.0,0.,12.0
1979-07-20 18:57:17.250 ,2,0,0.,12.0,0.,12.0,0.,12.0,0.,12.0
1979-07-20 18:57:29.250 ,2,0,0.,12.0,0.,12.0,0.,12.0,0.,12.0
1979-07-20 18:57:41.250 ,1,0,0.,12.0,0.,12.0,0.,12.0,0.,12.0
1979-07-20 18:57:53.250 ,1,0,0.,12.0,0.,12.0,0.,12.0,0.,12.0
1979-07-20 18:58:05.250 ,1,0,0.,12.0,0.,12.0,0.,12.0,0.,12.0
1979-07-20 18:58:17.250 ,1,0,0.,12.0,0.,12.0,0.,12.0,0.,12.0
1979-07-20 18:58:29.250 ,0,0,0.,12.0,0.,12.0,0.,12.0,0.,12.0
1979-07-20 18:58:41.250 ,0,0,1.,12.0,0.,12.0,0.,12.0,0.,12.0
1979-07-20 18:58:53.250 ,0,0,0.,12.0,0.,12.0,0.,12.0,0.,12.0
1979-07-20 18:59:05.250 ,0,0,0.,12.0,0.,12.0,0.,12.0,0.,12.0
1979-07-20 18:59:17.250 ,0,0,0.,12.0,0.,12.0,0.,12.0,0.,12.0
1979-07-20 18:59:29.250 ,0,0,0.,12.0,0.,12.0,0.,12.0,0.,12.0
1979-07-20 18:59:41.250 ,0,0,0.,12.0,0.,12.0,0.,12.0,0.,12.0
1979-07-20 18:59:53.250 ,0,0,0.,12.0,0.,12.0,0.,12.0,0.,12.0
1979-07-20 19:00:05.250 ,1,0,0.,12.0,0.,12.0,0.,12.0,0.,12.0
1979-07-20 19:00:17.250 ,1,0,0.,12.0,0.,12.0,0.,12.0,0.,12.0
1979-07-20 19:00:29.250 ,1,0,0.,12.0,0.,12.0,0.,12.0,0.,12.0
1979-07-20 19:00:41.250 ,1,0,0.,12.0,0.,12.0,0.,12.0,0.,12.0
1979-07-20 19:00:53.250 ,2,0,0.,12.0,0.,12.0,0.,12.0,0.,12.0
1979-07-20 19:01:05.250 ,2,0,0.,12.0,0.,12.0,0.,12.0,0.,12.0
1979-07-20 19:01:17.250 ,2,0,0.,12.0,0.,12.0,0.,12.0,0.,12.0
1979-07-20 19:01:29.250 ,2,0,0.,12.0,0.,12.0,0.,12.0,0.,12.0
1979-07-20 19:02:29.250 ,0,0,0.,12.0,0.,12.0,0.,12.0,0.,12.0
1979-07-20 19:02:41.250 ,0,0,0.,12.0,0.,12.0,0.,12.0,0.,12.0
1979-07-20 19:02:53.250 ,0,0,0.,12.0,0.,12.0,0.,12.0,0.,12.0
1979-07-20 19:03:05.250 ,0,0,0.,12.0,0.,12.0,0.,12.0,0.,12.0
1979-07-20 19:03:17.250 ,5,0,0.,12.0,0.,12.0,0.,12.0,0.,12.0
1979-07-20 19:03:29.250 ,5,0,0.,12.0,0.,12.0,0.,12.0,0.,12.0
1979-07-20 19:03:41.250 ,5,0,0.,12.0,0.,12.0,0.,12.0,0.,12.0
1979-07-20 19:03:53.250 ,5,0,0.,12.0,0.,12.0,0.,12.0,0.,12.0
1979-07-20 19:04:05.250 ,6,0,0.,12.0,0.,12.0,0.,12.0,0.,12.0
1979-07-20 19:04:17.250 ,6,0,0.,12.0,0.,12.0,0.,12.0,0.,12.0
1979-07-20 19:04:29.250 ,6,0,0.,12.0,0.,12.0,0.,12.0,0.,12.0
1979-07-20 19:04:41.250 ,6,0,0.,12.0,0.,12.0,0.,12.0,0.,12.0
1979-07-20 19:04:53.250 ,7,0,0.,12.0,0.,12.0,0.,12.0,0.,12.0
1979-07-20 19:05:05.250 ,7,0,0.,12.0,0.,12.0,0.,12.0,0.,12.0
1979-07-20 19:05:17.250 ,7,0,0.,12.0,0.,12.0,0.,12.0,0.,12.0
1979-07-20 19:05:29.250 ,7,0,0.,12.0,0.,12.0,0.,12.0,0.,12.0
1979-07-20 19:05:41.250 ,7,0,0.,12.0,0.,12.0,0.,12.0,0.,12.0
1979-07-20 19:05:53.250 ,7,0,0.,12.0,0.,12.0,0.,12.0,0.,12.0
1979-07-20 19:06:05.250 ,7,0,0.,12.0,0.,12.0,0.,12.0,0.,12.0
1979-07-20 19:06:17.250 ,7,0,0.,12.0,0.,12.0,0.,12.0,0.,12.0
1979-07-20 19:06:29.250 ,6,0,0.,12.0,0.,12.0,0.,12.0,0.,12.0
1979-07-20 19:06:41.250 ,6,0,0.,12.0,0.,12.0,0.,12.0,0.,12.0
1979-07-20 19:06:53.250 ,6,0,0.,12.0,0.,12.0,0.,12.0,0.,12.0
1979-07-20 19:07:05.250 ,6,0,0.,12.0,0.,12.0,0.,12.0,0.,12.0
1979-07-20 19:07:17.250 ,5,0,0.,12.0,0.,12.0,0.,12.0,0.,12.0
1979-07-20 19:07:29.250 ,5,0,0.,12.0,0.,12.0,0.,12.0,0.,12.0
1979-07-20 19:07:41.250 ,5,0,0.,12.0,0.,12.0,0.,12.0,0.,12.0
1979-07-20 19:07:53.250 ,5,0,0.,12.0,0.,12.0,0.,12.0,0.,12.0
1979-07-20 19:08:05.250 ,4,0,0.,12.0,0.,12.0,0.,12.0,0.,12.0
1979-07-20 19:08:17.250 ,4,0,0.,12.0,0.,12.0,0.,12.0,0.,12.0
1979-07-20 19:08:29.250 ,4,0,0.,12.0,0.,12.0,0.,12.0,0.,12.0
1979-07-20 19:08:41.250 ,4,0,0.,12.0,0.,12.0,0.,12.0,0.,12.0
1979-07-20 19:08:53.250 ,3,0,0.,12.0,0.,12.0,0.,12.0,0.,12.0
1979-07-20 19:09:05.250 ,3,0,0.,12.0,0.,12.0,0.,12.0,0.,12.0
1979-07-20 19:09:17.250 ,3,0,0.,12.0,0.,12.0,0.,12.0,0.,12.0
1979-07-20 19:09:29.250 ,3,0,0.,12.0,0.,12.0,0.,12.0,0.,12.0
1979-07-20 19:09:41.250 ,2,0,0.,12.0,0.,12.0,0.,12.0,0.,12.0
1979-07-20 19:09:53.250 ,2,0,0.,12.0,0.,12.0,0.,12.0,0.,12.0
1979-07-20 19:10:05.250 ,2,0,0.,12.0,0.,12.0,0.,12.0,0.,12.0
1979-07-20 19:10:17.250 ,2,0,0.,12.0,0.,12.0,0.,12.0,0.,12.0
1979-07-20 19:10:29.250 ,1,0,0.,12.0,0.,12.0,0.,12.0,0.,12.0
1979-07-20 19:10:41.250 ,1,0,0.,12.0,0.,12.0,0.,12.0,0.,12.0
1979-07-20 19:10:53.250 ,1,0,0.,12.0,0.,12.0,0.,12.0,0.,12.0
1979-07-20 19:11:05.250 ,1,0,0.,12.0,0.,12.0,0.,12.0,0.,12.0
1979-07-20 19:11:17.250 ,0,0,0.,12.0,0.,12.0,0.,12.0,0.,12.0
1979-07-20 19:11:29.250 ,0,0,0.,12.0,0.,12.0,0.,12.0,0.,12.0
1979-07-20 19:11:41.250 ,0,0,0.,12.0,0.,12.0,0.,12.0,0.,12.0
1979-07-20 19:11:53.250 ,0,0,0.,12.0,0.,12.0,0.,12.0,0.,12.0
1979-07-20 19:12:05.250 ,0,0,0.,12.0,0.,12.0,0.,12.0,0.,12.0
1979-07-20 19:12:17.250 ,0,0,0.,12.0,0.,12.0,0.,12.0,0.,12.0
1979-07-20 19:12:29.250 ,0,0,0.,12.0,0.,12.0,0.,12.0,0.,12.0
1979-07-20 19:12:41.250 ,0,0,0.,12.0,0.,12.0,0.,12.0,0.,12.0
1979-07-20 19:12:53.250 ,0,0,0.,12.0,0.,12.0,0.,12.0,0.,12.0
1979-07-20 19:13:05.250 ,0,0,0.,12.0,0.,12.0,0.,12.0,0.,12.0
1979-07-20 19:13:17.250 ,0,0,0.,12.0,0.,12.0,0.,12.0,0.,12.0
1979-07-20 19:13:29.250 ,0,0,0.,12.0,0.,12.0,0.,12.0,0.,12.0
1979-07-20 19:13:41.250 ,2,0,0.,12.0,0.,12.0,0.,12.0,0.,12.0
1979-07-20 19:13:53.250 ,2,0,0.,12.0,0.,12.0,0.,12.0,0.,12.0
1979-07-20 19:14:05.250 ,2,0,0.,12.0,0.,12.0,0.,12.0,0.,12.0
1979-07-20 19:14:17.250 ,2,0,0.,12.0,0.,12.0,0.,12.0,0.,12.0
1979-07-20 19:14:29.250 ,3,0,1.,12.0,0.,12.0,0.,12.0,0.,12.0
1979-07-20 19:14:41.250 ,3,0,0.,12.0,0.,12.0,0.,12.0,0.,12.0
1979-07-20 19:14:53.250 ,3,0,0.,12.0,0.,12.0,0.,12.0,0.,12.0
1979-07-20 19:15:05.250 ,3,0,0.,12.0,0.,12.0,0.,12.0,0.,12.0
1979-07-20 19:15:17.250 ,4,0,0.,12.0,0.,12.0,0.,12.0,0.,12.0
1979-07-20 19:15:29.250 ,4,0,0.,12.0,0.,12.0,0.,12.0,0.,12.0
1979-07-20 19:15:41.250 ,4,0,0.,12.0,0.,12.0,0.,12.0,0.,12.0
1979-07-20 19:15:53.250 ,4,0,0.,12.0,0.,12.0,0.,12.0,0.,12.0
1979-07-20 19:16:05.250 ,5,0,0.,12.0,0.,12.0,0.,12.0,0.,12.0
1979-07-20 19:16:17.250 ,5,0,0.,12.0,0.,12.0,0.,12.0,0.,12.0
1979-07-20 19:16:29.250 ,5,0,0.,12.0,0.,12.0,0.,12.0,0.,12.0
1979-07-20 19:16:41.250 ,5,0,0.,12.0,0.,12.0,0.,12.0,0.,12.0
1979-07-20 19:16:53.250 ,6,0,0.,12.0,0.,12.0,0.,12.0,0.,12.0
1979-07-20 19:17:05.250 ,6,0,0.,12.0,0.,12.0,0.,12.0,0.,12.0
1979-07-20 19:17:17.250 ,6,0,0.,12.0,0.,12.0,0.,12.0,0.,12.0
1979-07-20 19:17:29.250 ,6,0,0.,12.0,0.,12.0,0.,12.0,0.,12.0
1979-07-20 19:17:41.250 ,7,0,0.,12.0,0.,12.0,0.,12.0,0.,12.0
1979-07-20 19:17:53.250 ,7,0,0.,12.0,0.,12.0,0.,12.0,0.,12.0
1979-07-20 19:18:05.250 ,7,0,0.,12.0,0.,12.0,0.,12.0,0.,12.0
1979-07-20 19:18:17.250 ,7,0,0.,12.0,0.,12.0,0.,12.0,0.,12.0
1979-07-20 19:18:29.250 ,7,0,0.,12.0,0.,12.0,0.,12.0,0.,12.0
1979-07-20 19:18:41.250 ,7,0,0.,12.0,0.,12.0,0.,12.0,0.,12.0
1979-07-20 19:18:53.250 ,7,0,0.,12.0,0.,12.0,0.,12.0,0.,12.0
1979-07-20 19:19:05.250 ,7,0,0.,12.0,0.,12.0,0.,12.0,0.,12.0
1979-07-20 19:19:17.250 ,6,0,0.,12.0,0.,12.0,0.,12.0,0.,12.0
1979-07-20 19:19:29.250 ,6,0,0.,12.0,0.,12.0,0.,12.0,0.,12.0
1979-07-20 19:19:41.250 ,6,0,0.,12.0,0.,12.0,0.,12.0,0.,12.0
1979-07-20 19:19:53.250 ,6,0,0.,12.0,0.,12.0,0.,12.0,0.,12.0
1979-07-20 19:20:05.250 ,5,0,0.,12.0,0.,12.0,0.,12.0,0.,12.0
1979-07-20 19:20:17.250 ,5,0,0.,12.0,0.,12.0,0.,12.0,0.,12.0
1979-07-20 19:20:53.250 ,0,0,0.,12.0,0.,12.0,0.,12.0,0.,12.0